Regional Weather Roundup
Issued by NWS

Home | Current Version | Previous Version | Text Only | Print | Product List | Glossary On
Versions: 1 2 3 4 5 6 7 8 9 10 11 12 13 14 15 16 17 18 19 20 21 22 23 24 25 26 27 28 29 30 31 32 33 34 35 36 37 38 39 40 41 42 43 44 45 46 47 48 49 50
000
ASUS43 KDTX 010910
RWRMI
MICHIGAN HOURLY REGIONAL WEATHER ROUNDUP
NATIONAL WEATHER SERVICE DETROIT/PONTIAC MI
500 AM EDT FRI AUG 01 2014

NOTE: "FAIR" INDICATES FEW OR NO CLOUDS BELOW 12,000 FEET WITH NO
SIGNIFICANT WEATHER AND/OR OBSTRUCTION TO VISIBILITY.

MIZ047>049-052>055-059>063-066>070-074>076-081>083-011000-
SOUTHEAST LOWER MICHIGAN

CITY           SKY/WX    TMP DP  RH WIND       PRES   REMARKS
ADRIAN         CLOUDY    63  60  90 SW3       30.08R
ALMA           CLEAR     58  57  95 SW3       30.03S FOG
ANN ARBOR      FOG       56  54  93 W3        30.07R VSB 3/4
BAD AXE        PTCLDY    56  56 100 CALM      30.05R FOG
CARO           PTCLDY    61  61  99 CALM      30.04R
DETROIT CITY   CLEAR     67  59  75 SW3       30.05S
DETROIT        MOCLDY    62  58  86 S5        30.06S
FLINT          PTCLDY    64  58  80 S6        30.05R
GROSSE ILE     CLEAR     64  61  88 W3        30.05S
HILLSDALE      CLOUDY    64  62  96 CALM      30.08R
HOWELL         CLEAR     59  57  94 CALM      30.06R

CITY           SKY/WX    TMP DP  RH WIND       PRES   REMARKS
JACKSON        MOCLDY    58  56  93 CALM      30.07R
LAMBERTVILLE   CLEAR     61  57  88 CALM      30.07S FOG
LANSING        CLEAR     62  58  86 SW5       30.05R
LAPEER         FAIR      57  56  96 CALM      30.05S FOG
MASON          CLEAR     60  57  92 CALM      30.06S
MONROE         CLEAR     59  57  94 CALM      30.05S
MT. CLEMENS    CLEAR     57  57 100 CALM      30.04S
PONTIAC        CLEAR     62  58  86 SW3       30.05R
PORT HOPE        N/A     61  58  90 SW6       30.01R
PORT HURON     FOG       54  54 100 CALM      30.05S VSB 1/2
TRI CITIES     MOCLDY    64  59  83 S5        30.03S
TROY           CLEAR     63  59  88 SW5       30.07R
SAGINAW HB     MOCLDY    61  61 100 CALM      30.03R
$$
MIZ043>046-050>051-056>058-064>065-071>073-077>080-011000-
SOUTHWEST LOWER MICHIGAN

CITY           SKY/WX    TMP DP  RH WIND       PRES   REMARKS
BATTLE CREEK   CLEAR     62  57  83 SW5       30.06S
BENTON HARBOR  CLEAR     59  58  96 CALM      30.05S FOG
BIG RAPIDS     CLEAR     57  57 100 CALM      30.03R FOG
COLDWATER      CLOUDY    64  62  93 S3        30.07S
FREMONT        FOG       58  58 100 CALM      30.02S VSB 3/4
HOLLAND        CLEAR     63  59  87 CALM      30.04S
GRAND RAPIDS   CLEAR     62  59  90 CALM      30.04S
IONIA          FAIR      61  58  91 SW3       30.03S
KALAMAZOO      CLEAR     62  58  86 S3        30.06R
LUDINGTON      CLEAR     57  56  96 SW5       30.02R
MARSHALL       CLEAR     60  58  92 CALM      30.06S
MOUNT PLEASANT CLEAR     58  57  96 CALM      30.02S
MUSKEGON       PTCLDY    62  57  83 CALM      30.03R
SOUTH HAVEN    CLEAR     60  60 100 CALM      30.05S FOG
$$
MIZ016>042-011000-
NORTHERN LOWER MICHIGAN

CITY           SKY/WX    TMP DP  RH WIND       PRES   REMARKS
ALPENA         PTCLDY    56  54  93 CALM      30.01R
BEAVER ISLAND  FOG       49  49 100 CALM      30.00S VSB 1/2
BELLAIRE       PTCLDY    53  51  95 CALM      30.01R FOG
CADILLAC       PTCLDY    51  50  99 CALM      30.03R FOG
CHARLEVOIX     CLEAR     56  56 100 CALM      30.03R FOG
FRANKFORT      CLEAR     56  53  89 CALM      30.00S FOG
GAYLORD        MOCLDY    56  52  86 CALM      30.02R
GRAYLING       CLEAR     49  49 100 CALM      30.03R FOG
HARBOR SPRINGS CLOUDY    58  57  96 CALM      30.01R FOG
HOUGHTON LAKE  CLEAR     50  50 100 CALM      30.03R
MANISTEE         N/A     54  50  87 CALM      30.02R VSB 1/2
OSCODA         CLEAR     52  49  91 CALM      30.01S
PELLSTON       MOCLDY    48  47  96 CALM      30.01R FOG
ROGERS CITY    PTCLDY    56  55  97 CALM      30.02R
TRAVERSE CITY  PTCLDY    60  57  89 S5        29.99S
$$
MIZ007>008-015-011000-
EASTERN UPPER MICHIGAN

CITY           SKY/WX    TMP DP  RH WIND       PRES   REMARKS
KINROSS        CLOUDY    54  54 100 CALM      30.00S
MACKINAC ISLAN FOG       59  59 100 CALM      30.00S VSB 1/2
NEWBERRY       MOCLDY    50  48  93 CALM      30.00R
S. S. MARIE    CLOUDY    54  51  90 S5        29.99S
MUNISING         N/A     50  47  89 S8        29.99S
$$
MIZ004>006-011>014-085-011000-
CENTRAL UPPER MICHIGAN

CITY           SKY/WX    TMP DP  RH WIND       PRES   REMARKS
MANISTIQUE     CLEAR     47  47  98 N3        30.01R
ESCANABA       CLEAR     48  45  87 CALM      30.00R
MENOMINEE      PTCLDY    55  54  94 CALM      29.99R
SAWYER-GWINN   CLEAR     46  44  91 CALM      30.01S
$$
MIZ001>003-009>011-084-011000-
WESTERN UPPER MICHIGAN

CITY           SKY/WX    TMP DP  RH WIND       PRES   REMARKS
IRON MOUNTAIN  MOCLDY    54  51  90 CALM      30.00S
HOUGHTON       CLEAR     50  47  89 NE3       30.01R
COPPER HARBOR    N/A     55  50  83 W5        30.00R
$$

ABBREVIATIONS USED IN REMARKS
   TC - TEMPERATURE IN CELSIUS
  WCI - WIND CHILL INDEX
   HX - HEAT INDEX
  VSB - VISIBILITY




USA.gov is the U.S. government's official web portal to all federal, state and local government web resources and services.